Back to catalog

VANGUARD DEB

AliveUNKNOWN
NORAD 1576·DEBRIS·🇺🇸 United States

Launched Mar 17, 1958 from Cape Canaveral Space Force Station

Loading…

Next Passes (next 24 hours)

TLE

FreshSource: Space-Track

Epoch: Sep 14, 2026, 09:14 UTC

1 01576U 58002C   26257.38503537  .00002288  00000-0  20188-2 0  9991
2 01576  34.2216 143.4136 1385998 136.4130 235.4741 11.83529432812670

Track VANGUARD DEB in real time with AllMySat

Download on the App Store